Lid_Strength_Index
7 11 13 11 9 9 10 11 12 10 8 9 11 12 10 9 9 10 9 8 6 5 5 3 3 3 2 2 2 2 2 1 1 2 3 3 3 4 3 2 1 1 2 3
9 12 9 8 8 10 11 12 12 10 8 9 10 11 9 9 10 10 9 7 6 6 4 4 4 3 3 2 2 2 2 1 1 2 2 3 3 2 2 2 2 2 3 4
12 10 8 10 11 11 11 13 12 13 10 9 10 12 10 9 10 9 9 8 5 6 6 4 4 4 3 3 2 2 2 1 1 1 2 2 2 3 3 4 4 5 5 6
12 9 10 10 11 11 15 10 11 12 13 17 10 18 12 10 11 10 10 10 8 5 5 4 4 4 4 3 2 2 2 1 1 1 2 3 3 3 4 4 6 6 7 8
13 11 11 13 12 10 13 10 11 12 14 14 13 16 14 10 11 11 11 11 9 7 5 5 4 4 3 3 2 2 2 1 1 1 2 3 3 4 5 5 6 9 9 9
12 8 10 12 11 10 10 12 12 12 14 19 15 15 15 13 12 11 11 10 9 7 6 5 4 3 3 3 2 2 2 2 2 1 2 3 4 5 5 6 7 9 11 11
14 13 10 10 12 10 11 14 19 20 20 20 13 16 14 11 10 10 10 10 8 7 5 5 5 4 4 3 3 2 2 2 2 2 2 3 3 4 5 7 8 9 11 11
20 21 14 10 12 13 13 14 19 23 24 21 13 19 14 9 9 8 9 8 8 7 6 5 5 4 4 4 3 3 3 3 2 2 2 3 3 3 5 7 7 8 9 10
20 19 13 12 10 11 13 16 11 17 16 19 16 14 11 9 9 9 10 9 9 7 5 5 4 4 4 4 3 3 3 2 2 2 2 3 3 3 5 6 7 9 10 11
16 21 15 13 11 10 12 11 16 16 22 23 18 16 15 13 10 9 11 11 7 6 6 5 4 4 4 3 3 2 2 3 2 2 2 3 3 4 5 6 8 10 12 12
15 17 17 14 15 15 13 14 13 13 16 21 22 20 13 12 11 11 9 8 7 6 5 5 4 4 4 4 4 3 3 3 3 3 3 3 5 7 8 9 9 11 12 13
14 17 21 18 14 11 12 14 14 18 19 17 18 19 13 11 9 9 9 8 7 7 6 6 5 6 6 6 5 4 4 4 4 4 5 7 9 10 11 12 13 13 14 13
14 18 22 19 14 12 15 15 15 16 15 18 20 18 13 12 10 9 9 9 10 10 9 10 11 11 11 12 12 12 11 12 11 11 11 12 12 13 13 14 14 14 14 13
13 17 19 22 20 17 19 18 17 18 19 20 18 19 16 15 12 11 11 10 11 11 11 12 12 12 12 12 12 12 12 12 12 12 13 14 14 14 14 14 14 14 13 14
15 19 18 17 16 16 17 18 18 20 20 21 18 19 17 15 13 12 12 12 13 13 13 13 13 13 12 12 12 12 12 12 13 13 14 14 14 14 14 14 14 14 14 14
15 20 18 18 14 15 19 18 17 20 20 19 17 19 16 15 13 13 13 13 14 14 14 13 12 13 12 12 12 12 13 13 13 14 15 14 15 15 16 16 16 17 17 17
17 18 20 21 16 17 21 20 19 20 20 20 22 17 17 19 17 16 15 14 14 14 13 13 13 13 13 13 12 13 14 13 14 15 16 16 16 17 17 17 17 17 18 17
18 19 18 20 18 23 18 17 17 19 20 20 20 19 16 18 19 20 17 16 16 16 16 16 15 16 15 14 14 14 14 15 15 16 16 16 17 17 17 17 17 18 18 18
15 18 20 20 19 16 18 19 20 20 22 20 20 20 18 15 17 21 20 19 19 20 17 18 17 17 17 16 16 17 17 18 18 19 18 17 17 17 17 17 17 16 16 16
15 15 19 20 22 25 20 19 17 16 23 19 20 22 21 18 23 23 21 21 21 21 21 20 20 20 20 19 18 18 19 19 20 19 19 18 17 16 17 17 17 17 16 16
19 20 21 21 20 20 18 18 16 25 24 18 19 20 21 25 23 21 20 21 21 21 20 21 22 23 22 20 20 21 21 21 19 19 19 19 19 18 17 17 17 17 16 16
20 21 21 22 24 24 17 18 23 20 18 18 19 20 21 21 21 21 21 22 21 22 21 21 22 23 23 21 20 21 22 20 20 20 20 20 20 18 18 17 18 17 17 17
20 19 20 19 20 17 17 19 18 18 19 19 19 19 19 20 21 21 22 22 22 22 22 22 23 24 24 24 23 23 22 20 20 20 21 21 20 19 18 19 19 18 18 19
16 16 17 17 16 18 18 18 18 18 19 19 18 19 19 21 21 22 22 22 22 22 23 22 23 25 25 24 24 23 23 20 21 21 21 20 20 20 19 19 19 19 19 20
17 17 17 16 15 16 17 19 19 19 18 19 19 19 19 20 21 21 22 22 22 23 23 23 24 25 25 25 25 24 23 22 21 21 22 21 21 21 21 20 19 19 19 19
17 18 17 18 17 17 19 19 19 20 20 20 20 20 20 20 21 22 23 23 24 24 24 25 25 25 26 26 26 25 24 23 23 23 23 23 23 23 23 23 23 19 18 18